Regional Weather Roundup
Issued by NWS

Home | Current Version | Previous Version | Graphics & Text | Print | Product List | Glossary On
Versions: 1 2 3 4 5 6 7 8 9 10 11 12 13 14 15 16 17 18 19 20 21 22 23 24 25 26 27 28 29 30 31 32 33 34 35 36 37 38 39 40 41 42 43 44 45 46 47 48 49 50
000
ASUS45 KCYS 240210
RWRWY

WYOMING REGIONAL WEATHER ROUNDUP
NATIONAL WEATHER SERVICE CHEYENNE WY
800 PM MDT THU APR 23 2015

NOTE:  "FAIR" INDICATES FEW OR NO CLOUDS BELOW 12,000 FEET
WITH NO SIGNIFICANT WEATHER AND/OR OBSTRUCTIONS TO VISIBILITY.

WYZ001-240300-
YELLOWSTONE NATIONAL PARK

CITY           SKY/WX    TMP DP  RH WIND       PRES   REMARKS
LK YELLOWSTONE   N/A     39  23  52 CALM      29.82F
W YELLOWSTONE  NOT AVBL

$$
WYZ002>013-054>058-071-098>099-240300-
NORTHERN WYOMING

CITY           SKY/WX    TMP DP  RH WIND       PRES   REMARKS
JACKSON        CLEAR     50  28  43 S7        29.77S
CODY           FAIR      52  45  76 S3        29.70F
GREYBULL       CLOUDY    60  40  47 NW10      29.66R
WORLAND        CLOUDY    55  43  63 SE15      29.69R
SHERIDAN       FAIR      52  44  74 E3        29.69F
BUFFALO        LGT RAIN  51  42  71 SW14      29.73S
GILLETTE       CLOUDY    55  40  56 N13       29.70R
HULETT         MOCLDY    59  36  41 NE5       29.69F
NEWCASTLE      FAIR      59  32  36 NW14G21   29.68S

$$
WYZ014>020-022>026-101>103-240300-
CENTRAL WYOMING

CITY           SKY/WX    TMP DP  RH WIND       PRES   REMARKS
BIG PINEY      CLOUDY    44  36  73 S3        29.84R
PINEDALE       FAIR      41  36  81 CALM      29.84S
DUBOIS         MOCLDY    43  32  65 W21       29.76S
LANDER         CLOUDY    54  35  48 SW6       29.70R
RIVERTON       CLOUDY    54  39  57 E10       29.71R
CASPER         FAIR      49  36  61 SW7       29.72S
DOUGLAS        FAIR      53  40  61 NW5       29.72R

$$
WYZ021-027>030-104>119-240300-
SOUTHERN WYOMING

CITY           SKY/WX    TMP DP  RH WIND       PRES   REMARKS
EVANSTON       MOCLDY    44  34  67 SE9       29.83F
KEMMERER       FAIR      45  34  65 CALM      29.85S
FORT BRIDGER   CLEAR     46  34  61 S7        29.87S
ROCK SPRINGS   CLOUDY    45  33  63 W8        29.85F
DIXON          FAIR      47  33  58 SW3       29.87S
RAWLINS        FAIR      46  33  60 W18       29.81F
SARATOGA       FAIR      41  32  70 S6        29.84F
LARAMIE        FAIR      40  33  76 W7        29.82R
CHEYENNE       FAIR      53  31  42 W9        29.77R
TORRINGTON     FAIR      61  31  32 W8        29.65R
PINE BLUFFS    FAIR      50  36  57 W7        29.73S

$$


USA.gov is the U.S. government's official web portal to all federal, state and local government web resources and services.